Flag for Germany Weather past 2 weeks in Garbsen, Lower Saxony, Germany

Now
48 °F

Clear.


Feels Like: 46 °F
Forecast: 54 / 73 °F
Wind: 5 mph from Northeast

Location: Hannover

Current Time: Sep 3, 2014 at 4:48:35 AM

Latest Report: Sep 3, 2014 at 4:20 AM


Visibility: 10 mi

Pressure: 30.27 "Hg

Humidity: 100%

Dew point: 48 °F

Location of GarbsenLocation

Historic Weather in Garbsen — Graph

°F

Garbsen temperature yesterday

Maximum temperature yesterday: 64 °F (at 5:50 PM)
Minimum temperature yesterday: 54 °F (at 10:50 PM)
Average temperature yesterday: 60 °F

Past Weeks' High & Low Weather Summary

 TemperatureHumidityPressure
High73 °F (Aug 28, 2:50 PM)100% (Aug 25, 12:20 AM)30.27 "Hg (Aug 25, 12:20 AM)
Low43 °F (Aug 25, 5:20 AM)43% (Aug 28, 12:50 PM)29.71 "Hg (Aug 26, 6:20 AM)
Average57 °F81%29.95 "Hg
* Reported Aug 19 3:20 AM — Sep 3 3:50 AM, Garbsen, Weather by CustomWeather, © 2014

Note: Actual official high and low records may vary slightly from our data, if they occured in-between our weather recording intervals... More about our weather records

Advertising

Garbsen weather history for previous 24 hours

 ConditionsComfort  
Time TempWeatherWind HumidityBarometerVisibility
3:50 AM
Sep 3
50 °FClear.6 mph94%30.27 "Hg10 mi
3:20 AM50 °FClear.6 mph100%30.27 "Hg10 mi
2:50 AM50 °FClear.6 mph100%30.27 "Hg10 mi
2:20 AM52 °FClear.6 mph94%30.27 "Hg10 mi
1:50 AM52 °FClear.6 mph100%30.27 "Hg10 mi
1:20 AM54 °FClear.6 mph100%30.27 "Hg10 mi
12:50 AM54 °FFog.5 mph100%30.27 "HgN/A
12:20 AM54 °FLight fog.2 mph100%30.27 "Hg6 mi
11:50 PM
Sep 2
54 °FFog.1 mph100%30.27 "Hg1 mi
11:20 PM54 °FLight fog.No wind100%30.27 "Hg5 mi
10:50 PM54 °FLight fog.1 mph100%30.27 "Hg5 mi
10:20 PM55 °FLight fog.1 mph94%30.24 "Hg5 mi
9:50 PM55 °FLight fog.3 mph94%30.24 "Hg5 mi
9:20 PM55 °FLight fog.1 mph100%30.24 "Hg3 mi
8:50 PM57 °FFog.3 mph94%30.24 "HgN/A
8:20 PM59 °FFog.1 mph94%30.21 "HgN/A
7:50 PM63 °FSunny.2 mph83%30.21 "Hg10 mi
7:20 PM64 °FSunny.2 mph78%30.21 "Hg10 mi
6:50 PM64 °FSunny.1 mph78%30.21 "Hg10 mi
6:20 PM64 °FScattered clouds.2 mph78%30.21 "HgN/A
5:50 PM64 °FScattered clouds.2 mph78%30.21 "HgN/A
5:20 PM63 °FBroken clouds.5 mph83%30.21 "HgN/A
4:50 PM63 °FPartly sunny.6 mph88%30.21 "HgN/A
4:20 PM63 °FPartly sunny.7 mph83%30.21 "HgN/A
3:50 PM63 °FPartly sunny.7 mph83%30.21 "HgN/A
3:20 PM63 °FPartly sunny.6 mph88%30.21 "HgN/A
2:50 PM63 °FPartly sunny.9 mph88%30.21 "HgN/A
2:20 PM61 °FPartly sunny.7 mph94%30.18 "HgN/A
1:50 PM61 °FPartly sunny.10 mph94%30.18 "HgN/A
1:20 PM63 °FBroken clouds.12 mph88%30.18 "HgN/A
12:50 PM61 °FBroken clouds.8 mph94%30.18 "HgN/A
12:20 PM61 °FPartly sunny.10 mph94%30.18 "HgN/A
11:50 AM63 °FPartly sunny.7 mph88%30.18 "HgN/A
11:20 AM63 °FBroken clouds.7 mph88%30.15 "HgN/A
10:50 AM63 °FPartly sunny.9 mph88%30.15 "HgN/A
10:20 AM63 °FPartly sunny.10 mph88%30.15 "HgN/A
9:50 AM63 °FPartly sunny.8 mph88%30.15 "HgN/A
9:20 AM61 °FBroken clouds.7 mph94%30.12 "Hg5 mi
8:50 AM59 °FFog.5 mph100%30.12 "Hg2 mi
8:20 AM59 °FLight rain. Fog.7 mph94%30.12 "Hg2 mi
7:50 AM57 °FLight rain. Fog.7 mph100%30.12 "Hg1 mi
7:20 AM57 °FFog.7 mph100%30.12 "Hg1 mi
6:50 AM57 °FFog.6 mph100%30.12 "Hg1 mi
6:20 AM57 °FFog.7 mph100%30.09 "Hg1 mi
5:50 AM57 °FFog.7 mph100%30.09 "Hg2 mi
5:20 AM57 °FDrizzle. Fog.9 mph100%30.09 "Hg2 mi
4:50 AM57 °FDrizzle. Fog.8 mph100%30.09 "Hg2 mi
4:20 AM57 °FFog.9 mph100%30.09 "Hg3 mi
Weather by CustomWeather, © 2014

See weather overviewHow to use our weather pages